Location: Eppenbrunn
(49.1158°N, 7.5601°E)
Time: 06:10:05
(UTC+00:00)

Cosmos 1892 - Pass Details

Date: 09 April 2020
Orbit: 503 x 526 km, 82.5° (Epoch: 29 May)

Event Time Altitude Azimuth Distance (km) Brightness Sun altitude
Rises 19:54:46 0° 355° (N) 2,675 6.9 -16.0°
Reaches altitude 10° 19:56:59 10° 1° (N) 1,781 5.9 -16.3°
Maximum altitude 20:00:46 46° 76° (ENE) 716 3.1 -16.8°
Enters shadow 20:01:44 37° 117° (ESE) 827 3.2 -16.9°
